Location: Melizzano
(41.1500°N, 14.5000°E)
Time: 02:34:32
(UTC+00:00)

ISS - Pass Details

Date: 11 May 2021
Orbit: 417 x 422 km, 51.6° (Epoch: 14 June)

Event Time Altitude Azimuth Distance (km) Brightness Sun altitude
Exits shadow 23:17:37 13° 22° (NNE) 1,335 -0.5 -30.5°
Drops below altitude 10° 23:18:23 10° 32° (NNE) 1,539 -0.2 -30.5°
Sets 23:20:51 0° 51° (NE) 2,375 0.7 -30.5°
